Terminal Aerodrome Forecast
Issued by NWS

Home | Current Version | Previous Version | Graphics & Text | Print | Product List | Glossary On
Versions: 1 2 3 4 5 6 7 8 9 10 11 12 13 14 15 16 17
000
FTUS43 KBIS 180900 AAA
TAFMOT
TAF AMD
KMOT 180948Z 1810/1906 13005KT P6SM OVC009
     FM181800 17013KT P6SM SCT020 SCT150
     FM190200 20009KT P6SM BKN120=

USA.gov is the U.S. government's official web portal to all federal, state and local government web resources and services.